Weather History for Crossville, TN

Change the Weather History Date:

Monday, February 25, 2013

  Actual Average Record
Temperature  
Mean Temperature 44 °F 42 °F  
Max Temperature 57 °F 51 °F 75 °F (1977)
Min Temperature 30 °F 32 °F -2 °F (1967)
Degree Days  
Heating Degree Days 21    
Month to date heating degree days 664  
Since 1 July heating degree days 3054  
Cooling Degree Days 0    
Month to date cooling degree days 0  
Year to date cooling degree days 0  
Moisture  
Dew Point 28 °F    
Average Humidity 53    
Maximum Humidity 74    
Minimum Humidity 32    
Precipitation  
Precipitation 0.00 in 0.16 in 1.79 in (1979)
Month to date precipitation 2.17 3.99  
Year to date precipitation 9.30 8.75  
Sea Level Pressure  
Sea Level Pressure 29.90 in    
Wind  
Wind Speed 7 mph (ESE)    
Max Wind Speed 18 mph    
Max Gust Speed 29 mph    
Visibility 10 miles    
Events      
T = Trace of Precipitation, MM = Missing Value Source: NWS Daily Summary

Daily Weather History Graph

Daily Weather History Graph

Search for Another Location

Airport:

Trip Planner

Search our weather history database for the weather conditions in past years. The results will help you decide how hot, cold, wet, or windy it might be!

Date:

Astronomy

Feb. 25, 2013 Rise Set
Actual Time 6:15 AM CST 5:31 PM CST
Civil Twilight 5:49 AM CST 5:57 PM CST
Nautical Twilight 5:19 AM CST 6:27 PM CST
Astronomical Twilight 4:50 AM CST 6:57 PM CST
Moon 5:42 PM CST 5:46 AM CST
Length of Visible Light 12h 08m
Length of Day
11h 16m
Full, 100% of the Moon is Illuminated
Feb 25
Full
Feb 25
Full
Mar 4
Last Quarter
Mar 11
New
Mar 19
First Quarter

Hourly Weather History & Observations

Time (CST) Temp. Windchill Dew Point Humidity Pressure Visibility Wind Dir Wind Speed Gust Speed Precip Events Conditions
12:53 AM 32.0 °F 28.7 °F 21.0 °F 64% 30.01 in 10.0 mi NE 3.5 mph - N/A   Clear
1:53 AM 32.0 °F 28.7 °F 21.0 °F 64% 30.00 in 10.0 mi ENE 3.5 mph - N/A   Clear
2:53 AM 32.0 °F 28.7 °F 21.0 °F 64% 29.99 in 10.0 mi NE 3.5 mph - N/A   Clear
3:53 AM 33.1 °F 27.7 °F 21.0 °F 61% 29.99 in 10.0 mi NE 5.8 mph - N/A   Clear
4:53 AM 30.9 °F 26.2 °F 21.9 °F 69% 30.01 in 10.0 mi ENE 4.6 mph - N/A   Clear
5:53 AM 32.0 °F 27.5 °F 21.0 °F 64% 30.01 in 10.0 mi NE 4.6 mph - N/A   Clear
6:53 AM 32.0 °F 28.7 °F 21.0 °F 64% 30.03 in 10.0 mi East 3.5 mph - N/A   Clear
7:53 AM 36.0 °F 32.1 °F 21.0 °F 55% 30.03 in 10.0 mi East 4.6 mph - N/A   Clear
8:53 AM 41.0 °F 35.8 °F 21.9 °F 47% 30.03 in 10.0 mi SE 8.1 mph - N/A   Clear
9:53 AM 43.0 °F 38.2 °F 21.0 °F 42% 30.01 in 10.0 mi East 8.1 mph - N/A   Clear
10:53 AM 48.9 °F - 23.0 °F 36% 29.99 in 10.0 mi ESE 9.2 mph - N/A   Clear
11:53 AM 54.0 °F - 25.0 °F 33% 29.95 in 10.0 mi ESE 8.1 mph - N/A   Clear
12:53 PM 55.0 °F - 26.1 °F 33% 29.94 in 10.0 mi ESE 9.2 mph - N/A   Clear
1:53 PM 55.9 °F - 28.0 °F 34% 29.91 in 10.0 mi SE 8.1 mph - N/A   Clear
2:53 PM 55.9 °F - 28.9 °F 36% 29.89 in 10.0 mi SE 10.4 mph 17.3 mph N/A   Clear
3:53 PM 53.1 °F - 30.0 °F 41% 29.87 in 10.0 mi Variable 5.8 mph - N/A   Overcast
4:53 PM 52.0 °F - 30.0 °F 43% 29.83 in 10.0 mi ESE 10.4 mph - N/A   Scattered Clouds
5:53 PM 50.0 °F - 28.0 °F 43% 29.83 in 10.0 mi SE 9.2 mph 18.4 mph N/A   Clear
6:53 PM 48.9 °F - 28.9 °F 46% 29.83 in 10.0 mi ESE 4.6 mph - N/A   Partly Cloudy
7:53 PM 50.0 °F - 28.9 °F 44% 29.83 in 10.0 mi ESE 5.8 mph - N/A   Overcast
8:53 PM 51.1 °F - 35.1 °F 54% 29.78 in 10.0 mi SE 12.7 mph 20.7 mph N/A   Overcast
9:08 PM 51.8 °F - 37.4 °F 58% 29.77 in 10.0 mi SE 13.8 mph 21.9 mph N/A   Overcast
9:38 PM 51.8 °F - 39.2 °F 62% 29.76 in 10.0 mi SE 13.8 mph 26.5 mph N/A   Overcast
9:53 PM 51.1 °F - 39.9 °F 66% 29.77 in 10.0 mi SE 10.4 mph 28.8 mph N/A   Overcast
10:09 PM 51.8 °F - 39.2 °F 62% 29.76 in 10.0 mi SSE 12.7 mph 26.5 mph N/A   Overcast
10:53 PM 50.0 °F - 42.1 °F 74% 29.73 in 10.0 mi SSE 10.4 mph 19.6 mph N/A   Overcast
11:53 PM 50.0 °F - 42.1 °F 74% 29.69 in 10.0 mi SSE 10.4 mph 25.3 mph N/A   Overcast